Regional Weather Roundup
Issued by NWS

Home | Current Version | Previous Version | Text Only | Print | Product List | Glossary Off
Versions: 1 2 3 4 5 6 7 8 9 10 11 12 13 14 15 16 17 18 19 20 21 22 23 24 25 26 27 28 29 30 31 32 33 34 35 36 37 38 39 40 41 42 43 44 45 46 47 48 49 50

000
ASUS43 KLOT 211306
RWRIL

ILLINOIS REGIONAL WEATHER ROUNDUP
NATIONAL WEATHER SERVICE CHICAGO/ROMEOVILLE IL
800 AM CDT SUN SEP 21 2014

NOTE: "FAIR" INDICATES FEW OR NO CLOUDS BELOW 12,000 FEET WITH NO
SIGNIFICANT WEATHER AND/OR OBSTRUCTIONS TO VISIBILITY.

* THESE STATIONS ARE NOT UNDER NWS QUALITY CONTROL. THEY ALSO MAY NOT
  REPORT WEATHER SUCH AS PRECIPITATION OR FOG.

ILZ001-002-007-009-015-016-024-211400-
NORTHWEST ILLINOIS

CITY           SKY/WX    TMP DP  RH WIND       PRES   REMARKS
MOLINE         SUNNY     59  51  75 W15       29.93R
STERLING*      SUNNY     57  52  82 NW15      29.89R
SAVANNA*       SUNNY     58  51  75 NW9G20    29.89R
$$

ILZ003-004-008-010-011-017-018-211400-
NORTH CENTRAL ILLINOIS

CITY           SKY/WX    TMP DP  RH WIND       PRES   REMARKS
ROCKFORD       PTSUNNY   56  51  84 W13       29.87R
ROCHELLE*      SUNNY     56  52  88 W13       29.86S
DE KALB*       MOSUNNY   54  51  87 W14G23    29.85R
PERU*          SUNNY     58  53  84 W14       29.89S
$$

ILZ005-006-012>014-019>023-211400-
NORTHEAST ILLINOIS

CITY           SKY/WX    TMP DP  RH WIND       PRES   REMARKS
CHICAGO-OHARE  MOSUNNY   58  50  75 W20       29.81R
CHICAGO-MIDWAY MOSUNNY   60  52  74 W18G28    29.82R
AURORA         SUNNY     57  52  83 W16       29.84S
LANSING*       SUNNY     58  53  81 W14       29.83S
JOLIET*        SUNNY     57  51  81 W9G16     29.85S
WAUKEGAN       CLOUDY    56  50  80 W10G16    29.77R
DUPAGE AIRPORT SUNNY     57  52  83 W12       29.83R
KANKAKEE*      SUNNY     58  53  86 W9        29.87S
WHEELING       MOSUNNY   59  50  72 W16G26    29.82R
MORRIS*        SUNNY     58  55  88 W13       29.85S
ROMEOVILLE*    SUNNY     57  52  85 W10       29.84S
NORTHERLY ISL    N/A     60  50  69 SW13        N/A
$$

LMZ740>746-211400-
SOUTHERN LAKE MICHIGAN

STATION/POSITION SKY/WX   TEMP    WIND        PRES    VSBY  WAVE
                          AIR SEA DIR/SP/G                  HT/PER
                          (F)     (DEG/KT/KT) (MB)    (MI)  (FT/S)
SOUTHERN BUOY              60 63  270/ 25/ 29 1006.5R         5/ 5
WAUKEGAN HARBOR            58     270/ 19/ 26   N/A
HARRISON CRIB              59     270/ 22/ 29   N/A
BURNHAM HARBOR             60     290/ 12/ 14   N/A
CALUMET HARBOR             60     250/  6/ 16 1008.4S
MICHIGAN CITY              61     250/ 27/ 32   N/A
MICHIGAN CITY 6N           62 65  280/ 19/ 25   N/A           6/ 5
ST. JOSEPH                 62 65  270/ 23/ 29   N/A           9/ 6
$$

ILZ025>027-034>036-040-047-049-050-058-095>099-211400-
WEST-CENTRAL ILLINOIS

CITY           SKY/WX    TMP DP  RH WIND       PRES   REMARKS
QUINCY         SUNNY     57  53  86 W8        30.01R
GALESBURG*     SUNNY     56  54  91 W9        29.95R
MACOMB*        SUNNY     56  54  91 W9        29.99S
JACKSONVILLE*  SUNNY     61  56  81 W7        30.00S
PITTSFIELD*    SUNNY     61  54  77 W7        30.03R
$$

ILZ028>032-037-038-041>044-048-051>054-059>061-211400-
CENTRAL ILLINOIS

CITY           SKY/WX    TMP DP  RH WIND       PRES   REMARKS
PONTIAC        SUNNY     59  55  88 W10       29.89S
DECATUR        SUNNY     61  53  75 W7        29.96R
PEORIA         SUNNY     60  52  74 W8        29.94R
LACON*         SUNNY     57  51  80 W8        29.91S
LINCOLN*       SUNNY     60  54  78 W6        29.93S
SPRINGFIELD    SUNNY     60  55  83 W10       29.98R
TAYLORVILLE    SUNNY     59  54  82 W7        29.98R
$$

ILZ033-039-045-046-055>057-062-063-211400-
EAST-CENTRAL ILLINOIS

CITY           SKY/WX    TMP DP  RH WIND       PRES   REMARKS
CHAMPAIGN      SUNNY     58  55  90 W6        29.94R
DANVILLE*      SUNNY     59  55  86 W9        29.89R
RANTOUL*       SUNNY     59  54  82 W8        29.92S
MATTOON        SUNNY     60  56  86 NW10      29.95R
PARIS*         SUNNY     61  57  88 W8        29.94R
$$

ILZ079-100>102-211400-
SOUTHWEST ILLINOIS

CITY           SKY/WX    TMP DP  RH WIND       PRES   REMARKS
BELLEVILLE     SUNNY     65  58  77 W9        30.00R
CAHOKIA*       SUNNY     67  53  61 N8        30.02R
SPARTA*        PTSUNNY   67  64  88 NW6       30.01R
$$

ILZ064>066-069>071-074>076-080>082-084>086-088>090-092>094-211400-
SOUTH-CENTRAL ILLINOIS

CITY           SKY/WX    TMP DP  RH WIND       PRES   REMARKS
CARBONDALE     PTSUNNY   72  69  90 NW8       29.97R
CAIRO*         MOSUNNY   73  68  86 W5        29.96R
EFFINGHAM*     SUNNY     62  53  73 NW7       29.97R
MARION         PTSUNNY   72  70  94 NW7       29.98R FOG
MT. VERNON     MOSUNNY   70  61  73 N9        29.98R
CENTRALIA*     SUNNY     65  55  71 NW9       29.99R
SALEM*         SUNNY     65  59  81 NW8       29.99R
METROPOLIS*    PTSUNNY   71  71 100 CALM      29.96R
$$

ILZ067-068-072-073-078-083-087-091-211400-
SOUTHEAST ILLINOIS

CITY           SKY/WX    TMP DP  RH WIND       PRES   REMARKS
LAWRENCEVILLE  SUNNY     70  66  87 NW16      29.93R
FLORA*         SUNNY     65  56  72 NW10      29.97R
FAIRFIELD*     SUNNY    N/A N/A N/A N6        29.95R
HARRISBURG*    PTSUNNY   71  71 100 W5        29.97R FOG
ROBINSON*      MOSUNNY   67  63  87 NW10      29.94R
CARMI*         CLOUDY    72  71  95 NW7       29.94R FOG
$$

ABBREVIATIONS USED IN REMARKS
   TC - TEMPERATURE IN CELSIUS
  WCI - WIND CHILL INDEX
   HX - HEAT INDEX
  VSB - VISIBILITY
$$



USA.gov is the U.S. government's official web portal to all federal, state and local government web resources and services.